Weather History for KASD - January, 2013

Change the Weather History Date:

Monday, January 28, 2013

  Actual Average (KNEW) Record (KNEW)
Temperature  
Mean Temperature 64 °F 54 °F  
Max Temperature 73 °F 63 °F 82 °F (1957)
Min Temperature 55 °F 45 °F 26 °F (1986)
Degree Days  
Heating Degree Days 1 12  
Month to date heating degree days 336  
Since 1 July heating degree days 817  
Cooling Degree Days 0 0  
Month to date cooling degree days 12  
Year to date cooling degree days 12  
Growing Degree Days 14 (Base 50)    
Moisture  
Dew Point 62 °F    
Average Humidity 94    
Maximum Humidity 100    
Minimum Humidity 73    
Precipitation  
Precipitation 0.01 in 0.17 in 1.47 in (1997)
Month to date precipitation 4.63  
Year to date precipitation 4.63  
Snow  
Snow 0.00 in - - ()
Month to date snowfall  
Since 1 July snowfall  
Snow Depth -    
Sea Level Pressure  
Sea Level Pressure 30.20 in    
Wind  
Wind Speed 3 mph (ESE)    
Max Wind Speed 13 mph    
Max Gust Speed -    
Visibility 5 miles    
Events Fog    
T = Trace of Precipitation, MM = Missing Value Source: NWS Daily Summary

Daily Weather History Graph

Daily Weather History Graph

Search for Another Location

Airport or City:

Trip Planner

Search our weather history database for the weather conditions in past years. The results will help you decide how hot, cold, wet, or windy it might be!

Date:

Astronomy

Jan. 28, 2013 Rise Set
Actual Time 6:52 AM CST 5:32 PM CST
Civil Twilight 6:26 AM CST 5:58 PM CST
Nautical Twilight 5:57 AM CST 6:26 PM CST
Astronomical Twilight 5:29 AM CST 6:55 PM CST
Moon 7:15 PM CST (1/28) 7:27 AM CST (1/28)
Length of Visible Light 11h 31m
Length of Day
10h 40m
Full, 98% of the Moon is Illuminated
Jan 28
Full
Feb 3
Last Quarter
Feb 10
New
Feb 17
First Quarter
Feb 25
Full

Hourly Weather History & Observations

Time (CST) Temp. Dew Point Humidity Pressure Visibility Wind Dir Wind Speed Gust Speed Precip Events Conditions
12:08 AM 55.4 °F 55.4 °F 100% 30.23 in 1.2 mi Calm Calm - N/A   Partly Cloudy
12:15 AM 55.4 °F 55.4 °F 100% 30.23 in 3.0 mi East 3.5 mph - N/A   Partly Cloudy
12:53 AM 60.1 °F 60.1 °F 100% 30.22 in 5.0 mi Calm Calm - N/A   Clear
1:22 AM 60.8 °F 60.8 °F 100% 30.20 in 4.0 mi East 5.8 mph - N/A   Partly Cloudy
1:39 AM 60.8 °F 60.8 °F 100% 30.20 in 4.0 mi East 5.8 mph - N/A   Mostly Cloudy
1:53 AM 61.0 °F 61.0 °F 100% 30.20 in 3.0 mi ESE 4.6 mph - N/A   Overcast
2:00 AM 60.8 °F 60.8 °F 100% 30.20 in 3.0 mi ESE 4.6 mph - N/A   Overcast
2:23 AM 60.8 °F 60.8 °F 100% 30.20 in 3.0 mi Calm Calm - N/A   Scattered Clouds
2:33 AM 60.8 °F 60.8 °F 100% 30.21 in 2.5 mi Calm Calm - N/A   Partly Cloudy
2:43 AM 57.2 °F 57.2 °F 100% 30.20 in 1.0 mi Calm Calm - N/A   Mist
2:53 AM 57.9 °F 57.9 °F 100% 30.21 in 0.5 mi Calm Calm - N/A Fog Fog
3:00 AM 57.2 °F 57.2 °F 100% 30.21 in 1.0 mi Calm Calm - N/A   Mist
3:05 AM 57.2 °F 57.2 °F 100% 30.21 in 3.0 mi Calm Calm - N/A   Mostly Cloudy
3:10 AM 57.2 °F 57.2 °F 100% 30.20 in 0.8 mi Calm Calm - N/A   Mist
3:53 AM 55.9 °F 55.9 °F 100% 30.21 in 0.2 mi Calm Calm - N/A Fog Fog
4:53 AM 57.9 °F 57.9 °F 100% 30.22 in 0.2 mi Calm Calm - 0.01 in Fog Fog
5:53 AM 57.9 °F 57.9 °F 100% 30.22 in 0.2 mi Calm Calm - N/A Fog Fog
6:53 AM 59.0 °F 59.0 °F 100% 30.22 in 1.2 mi Calm Calm - N/A   Overcast
7:16 AM 57.2 °F 57.2 °F 100% 30.23 in 1.8 mi Calm Calm - N/A   Scattered Clouds
7:25 AM 59.0 °F 59.0 °F 100% 30.23 in 2.0 mi Calm Calm - N/A   Clear
7:53 AM 59.0 °F 59.0 °F 100% 30.24 in 2.0 mi Calm Calm - N/A   Partly Cloudy
8:51 AM 62.6 °F 62.6 °F 100% 30.24 in 4.0 mi East 4.6 mph - N/A   Partly Cloudy
8:53 AM 62.1 °F 62.1 °F 100% 30.25 in 4.0 mi East 4.6 mph - N/A   Partly Cloudy
9:28 AM 64.4 °F 64.4 °F 100% 30.25 in 9.0 mi ESE 5.8 mph - N/A   Partly Cloudy
9:46 AM 66.2 °F 64.4 °F 94% 30.26 in 10.0 mi ESE 8.1 mph - N/A   Mostly Cloudy
9:53 AM 68.0 °F 64.9 °F 90% 30.26 in 10.0 mi SE 6.9 mph - N/A   Mostly Cloudy
10:39 AM 71.6 °F 64.4 °F 78% 30.25 in - SE 11.5 mph - N/A   Overcast
10:53 AM 71.1 °F 64.0 °F 78% 30.25 in 10.0 mi SSE 12.7 mph - N/A   Overcast
11:53 AM 72.0 °F 64.0 °F 76% 30.23 in 10.0 mi SE 9.2 mph - N/A   Overcast
12:53 PM 73.0 °F 64.0 °F 73% 30.20 in 10.0 mi SSE 10.4 mph - N/A   Overcast
1:53 PM 73.0 °F 64.0 °F 73% 30.18 in 10.0 mi SE 10.4 mph - N/A   Overcast
2:38 PM 73.4 °F 64.4 °F 73% 30.17 in 10.0 mi ESE 5.8 mph - N/A   Overcast
2:53 PM 72.0 °F 64.0 °F 76% 30.17 in 10.0 mi ESE 11.5 mph - N/A   Overcast
3:53 PM 72.0 °F 64.0 °F 76% 30.16 in 10.0 mi SE 9.2 mph - N/A   Overcast
4:20 PM 71.6 °F 64.4 °F 78% 30.16 in 10.0 mi SE 9.2 mph - N/A   Scattered Clouds
4:53 PM 71.1 °F 64.0 °F 78% 30.16 in 10.0 mi SE 6.9 mph - N/A   Clear
5:53 PM 68.0 °F 64.0 °F 87% 30.16 in 10.0 mi SE 4.6 mph - N/A   Clear
6:46 PM 66.2 °F 64.4 °F 94% 30.16 in 10.0 mi ESE 4.6 mph - N/A   Partly Cloudy
6:53 PM 66.0 °F 64.0 °F 93% 30.16 in 10.0 mi Variable 3.5 mph - N/A   Scattered Clouds
7:03 PM 66.2 °F 64.4 °F 94% 30.16 in 9.0 mi ESE 4.6 mph - N/A   Mostly Cloudy
7:53 PM 66.9 °F 66.0 °F 97% 30.16 in 8.0 mi ESE 8.1 mph - N/A   Overcast
8:53 PM 66.9 °F 66.0 °F 97% 30.15 in 8.0 mi Variable 5.8 mph - N/A   Overcast
9:30 PM 66.2 °F 66.2 °F 100% 30.14 in 5.0 mi SE 6.9 mph - N/A   Overcast
9:53 PM 66.0 °F 66.0 °F 100% 30.14 in 3.0 mi SE 8.1 mph - N/A   Overcast
10:53 PM 66.9 °F 66.9 °F 100% 30.14 in 4.0 mi SE 8.1 mph - N/A   Overcast
11:19 PM 66.2 °F 66.2 °F 100% 30.13 in 2.5 mi SE 6.9 mph - N/A   Overcast
11:53 PM 66.9 °F 66.9 °F 100% 30.12 in 2.5 mi SE 5.8 mph - N/A   Overcast